Location: GMARS
(34.2910°N, 116.3838°W)
Time: 03:32:27
(UTC-07:00)

Daily predictions for brighter satellites

Satellite Brightness Start Highest point End
(mag) Time Altitude Azimuth Time Altitude Azimuth Time Altitude Azimuth
Lacrosse 5 4.2 00:35:50 19° NW 00:36:00 19° NW 00:39:39 10° N
ATLAS 3B CENTAUR R/B 4.3 00:47:41 61° SE 00:47:41 61° SE 01:12:11 10° E
Cosmos 2369 Rocket 4.3 01:05:44 18° NW 01:05:44 18° NW 01:09:11 10° NNW
CZ-2C R/B 4.2 01:12:13 10° N 01:14:55 30° N 01:14:55 30° N
Cosmos 2227 Rocket 4.5 01:19:47 10° NNE 01:23:12 16° NE 01:24:41 15° ENE
ATLAS 2AS CENTAUR R/B 3.2 01:27:02 10° NNW 01:33:30 61° NW 01:33:30 61° NW
Cosmos 1943 Rocket 4.1 01:41:39 21° NW 01:41:39 21° NW 01:44:50 10° N
CZ-3B DEB 4.5 01:49:47 10° NW 02:16:51 52° WSW 02:18:30 50° SW
SeaSat 1 4.0 02:20:46 29° NNW 02:20:46 29° NNW 02:23:11 10° NNW
Cosmos 2034 Rocket 4.2 02:34:50 60° E 02:34:53 60° E 02:40:58 10° NNE
CZ-2D R/B 3.8 02:35:22 10° NE 02:39:41 24° E 02:40:29 23° ESE
SL-16 R/B 4.0 02:41:26 14° ESE 02:45:52 32° ENE 02:51:13 10° N
Cosmos 1898 Rocket 3.9 02:43:05 10° NNW 02:47:47 62° NNE 02:47:47 62° NNE
Cosmos 1697 Rocket 3.0 02:50:22 58° E 02:50:22 58° E 02:55:39 10° NNE
Cosmos 841 Rocket 4.3 02:51:37 45° E 02:51:37 45° E 02:56:23 10° NNE
Cosmos 1763 Rocket 3.9 02:57:36 58° E 02:57:36 58° E 03:02:22 10° NNE
Cosmos 2082 3.9 02:51:55 10° NNW 02:56:38 64° NNW 02:56:38 64° NNW
NOSS 3-4 (A) 4.5 02:51:05 10° NNW 02:57:57 53° NE 03:05:12 10° SE
NOSS 3-4 (C) 4.5 02:51:11 10° NNW 02:58:05 53° NE 03:05:21 10° SE
Cosmos 1980 Rocket 3.0 02:58:11 39° ESE 02:58:40 40° ESE 03:03:53 10° NE
Geosat 4.3 02:54:32 10° NNE 02:58:50 60° NNW 02:58:50 60° NNW
Cosmos 1937 Rocket 3.8 02:54:28 10° N 02:59:35 60° ENE 02:59:50 60° E
ATLAS CENTAUR R/B 2.5 03:00:50 48° NNW 03:00:50 48° NNW 03:04:54 10° NNE
Cosmos 2227 Rocket 2.6 03:02:07 10° NNW 03:06:27 50° NW 03:06:27 50° NW
Cosmos 2322 Rocket 4.3 03:08:13 13° SE 03:10:50 18° E 03:14:28 10° ENE
ARIANE 5 R/B 2.5 03:09:52 10° NNE 03:15:01 72° ESE 03:15:18 70° SE
ISS -0.6 03:14:23 17° N 03:15:36 20° NNE 03:18:07 10° E
Meteor 2-5 Rocket 4.0 03:12:17 10° NNW 03:17:43 57° W 03:17:43 57° W
Resurs 1-4 Rocket 2.4 03:13:40 10° NNE 03:18:52 58° E 03:19:45 51° SE
ADEOS 3.7 03:13:46 10° N 03:18:43 62° WNW 03:18:43 62° WNW
ERS-1 4.4 03:14:33 10° N 03:19:27 76° NW 03:19:27 76° NW
Okean 3 Rocket 4.5 03:15:20 10° NNW 03:18:16 40° NNW 03:18:16 40° NNW
OAO 1 4.4 03:21:00 72° WNW 03:21:34 83° N 03:27:03 10° E
Meteor 2-12 Rocket 4.3 03:23:20 65° SSW 03:24:14 80° W 03:30:18 10° N
UNK 4.3 03:23:05 40° SE 03:24:26 55° ENE 03:29:01 10° N
Cosmos 2297 Rocket 2.2 03:23:27 10° NNW 03:28:44 60° W 03:28:44 60° W
Cosmos 1766 4.1 03:33:18 44° NNW 03:33:18 44° NNW 03:36:12 10° N
Cosmos 1378 3.8 03:28:31 10° N 03:31:34 54° NNE 03:31:34 54° NNE
Spot 4 Rocket 4.3 03:28:16 10° N 03:33:14 51° WNW 03:33:21 51° WNW
Cosmos 1092 Rocket 4.0 03:31:37 10° N 03:37:56 79° E 03:41:41 26° SSE
Cosmos 2360 4.3 03:40:39 43° S 03:42:29 69° ESE 03:48:10 10° NNE
IRS-1D 3.4 03:38:22 10° N 03:43:16 64° WNW 03:43:53 58° WSW
Cosmos 1076 Rocket 3.3 03:39:29 10° N 03:43:47 80° W 03:43:49 80° WSW
SL-16 R/B 3.5 03:40:48 19° SSE 03:44:02 34° ESE 03:49:05 10° NE
ERS-2 4.2 03:41:48 10° NNW 03:43:28 19° NW 03:43:28 19° NW
GPS 2-04 Rocket1 2.7 03:46:09 69° NNW 03:46:21 71° N 03:50:13 10° E
UNKNOWN OBJECT B 2.6 03:46:46 10° NNE 03:50:39 85° ESE 03:50:51 79° SSE
Milstar 3 Cent rocket 2.5 03:53:52 43° SSW 03:54:59 50° S 04:02:32 10° ESE
Cosmos 1743 Rocket 4.1 03:50:47 10° N 03:55:02 55° E 03:58:07 18° SSE
EO 1 Del DPAF 3.1 03:58:07 69° SW 03:58:25 74° WSW 04:02:18 10° NNW
Cosmos 1758 3.2 03:58:13 65° WSW 03:58:30 68° W 04:02:29 10° N
Meteor 1-24 Rocket 4.2 03:54:15 10° NNW 03:59:40 43° W 04:00:52 38° WSW
SL-24 R/B - RUBIN 2 4.3 03:59:35 34° SSW 04:02:05 72° ESE 04:08:17 10° NNE
Cosmos 1441 Rocket 3.5 03:58:29 10° NNW 04:02:10 50° W 04:02:10 50° W
Cosmos 1805 3.1 04:02:32 61° WSW 04:02:51 65° W 04:06:44 10° N
Cosmos 1953 2.4 04:02:41 55° WSW 04:02:58 57° W 04:06:59 10° N
Cosmos 990 Rocket 4.3 03:58:18 10° NNW 04:03:17 44° WSW 04:04:07 41° SW
Okean O Rocket 2.1 03:59:17 10° NNE 04:03:37 58° E 04:06:01 25° S
Cosmos 2142 Rocket 4.4 04:00:42 32° SSW 04:03:39 73° W 04:09:46 10° N
Cosmos-2242 3.2 04:06:47 46° WSW 04:07:24 50° W 04:11:35 10° N
CZ-4B R/B 3.8 04:03:59 10° NNE 04:09:23 55° E 04:13:57 14° S
USA 81 4.0 04:06:55 23° S 04:10:19 85° E 04:15:37 10° N
Cosmos 2279 Rocket 4.0 04:10:03 16° S 04:15:07 83° E 04:21:23 10° N
Cosmos 1408 Rocket 4.2 04:12:23 10° NNW 04:16:20 33° W 04:16:37 33° W
ASTRO E2 3.9 04:19:04 26° S 04:19:04 26° S 04:21:48 10° SE
Cosmos 2227 4.2 04:12:48 10° NNW 04:18:36 85° ENE 04:24:20 10° SSE
Cosmos 783 Rocket 4.5 04:16:45 30° SSW 04:19:22 70° WNW 04:24:42 10° NNE
Cosmos 1544 3.0 04:18:23 44° SSW 04:19:23 67° W 04:23:02 10° N
CZ-2D R/B 2.9 04:14:51 10° N 04:19:47 36° WNW 04:21:48 27° WSW
Cosmos 1766 Rocket 4.3 04:16:04 10° NNW 04:20:02 33° W 04:20:34 32° WSW
MOZ.5/SAFIR/RUBIN 5/SL-8 4.2 04:16:57 10° SSE 04:21:38 65° ENE 04:26:16 10° N
ARGOS Delta rocket 4.3 04:17:18 10° NNE 04:22:18 60° E 04:26:49 11° S
MTI 4.0 04:22:48 47° WSW 04:23:07 49° W 04:26:19 10° NNW
Cosmos 372 Rocket 4.5 04:18:52 10° N 04:23:55 61° ENE 04:28:56 10° SSE
DELTA 2 R/B (1) 3.9 04:21:25 28° SW 04:24:10 55° SSE 04:29:37 10° ENE
IRS-1C Rocket 4.0 04:21:09 10° N 04:26:24 74° WNW 04:30:02 20° SSW
ADEOS II 3.9 04:23:24 10° NE 04:27:56 29° E 04:32:27 10° SSE
SL-16 R/B 3.1 04:26:32 23° SW 04:29:21 34° W 04:34:53 10° NW
Cosmos 1437 3.0 04:26:07 10° NNW 04:29:22 49° W 04:30:20 35° SW
Cosmos 1697 Rocket 4.4 04:32:06 14° W 04:34:26 17° WNW 04:38:07 10° NNW
In-Cosmos 22 4.4 04:29:33 10° NNW 04:34:31 42° W 04:38:22 16° SSW
Cosmos 1125 Rocket 3.5 04:31:28 10° NNW 04:36:32 55° WSW 04:41:34 10° S
GEOS 3 Rocket 3.7 04:32:38 10° SSE 04:37:42 53° WSW 04:42:46 10° NW
Cosmos 1842 Rocket 3.9 04:35:28 23° SW 04:37:58 48° W 04:42:18 10° N
Cosmos 332 Rocket 4.3 04:37:02 23° SW 04:39:34 43° WNW 04:44:11 10° N
Cosmos 1655 Rocket 4.1 04:35:18 10° NNW 04:41:36 62° W 04:47:52 10° S
Cosmos 1674 2.5 04:38:22 10° N 04:42:08 77° W 04:45:51 10° S
RESURS DK-1 2.5 04:38:26 10° NNW 04:42:34 78° ENE 04:46:41 10° SSE
Cosmos 1980 Rocket 3.5 04:39:58 17° W 04:42:45 24° WNW 04:47:17 10° N
Cosmos 2360 Rocket 3.3 04:37:55 10° S 04:43:09 41° ESE 04:48:24 10° NE
ADEOS Rocket 4.2 04:38:01 10° NNE 04:44:29 49° E 04:51:33 10° S
Aureole 1 Rocket 4.2 04:42:42 18° SW 04:46:54 56° WNW 04:54:05 10° N
Okean-O 3.2 04:44:37 10° NNE 04:49:00 59° E 04:53:21 10° S
CZ-4B DEB 4.2 04:44:52 10° N 04:50:22 68° WNW 04:55:48 10° SSW
ISS -2.7 04:49:08 10° WNW 04:52:05 32° SW 04:55:01 10° SSE
Cosmos 2322 Rocket 2.5 04:50:04 16° SW 04:54:22 50° WNW 04:59:50 10° N
Cosmos 1461 2.6 04:52:58 10° NNW 04:57:01 72° WSW 05:00:55 10° SSE
Resurs 1-4 Rocket 3.9 04:55:17 10° NNW 04:58:09 15° WNW 05:00:49 11° W
Cosmos 371 Rocket 3.8 04:55:37 15° SW 04:59:14 42° WNW 05:03:48 10° N
Cosmos 1470 3.6 04:57:07 16° SW 04:59:42 31° W 05:03:16 10° NNW
Meteor PRIRODA 4.5 04:57:35 10° NNE 05:01:11 51° E 05:04:46 10° S
CZ-3 R/B 3.2 04:40:29 13° WSW 05:05:47 59° S 05:12:26 10° E
Cosmos 1680 Rocket 4.3 05:09:42 10° S 05:14:44 53° ESE 05:19:48 10° NNE
Thor Agena Rocket 3.7 05:10:13 10° S 05:15:02 47° W 05:19:54 10° NNW
USA 116 3.3 05:13:13 10° SSE 05:16:20 83° ENE 05:19:40 10° N
CZ-4B R/B 4.0 05:13:31 10° NNW 05:16:43 25° WNW 05:19:48 10° SW
Cosmos 2151 3.3 05:14:42 10° NNW 05:18:50 46° W 05:22:56 10° SSW
Cosmos 1666 Rocket 4.2 05:14:32 10° N 05:18:53 60° E 05:23:08 10° SSE
Cosmos 1346 3.1 05:21:14 10° N 05:24:16 84° ENE 05:27:17 10° S
GPS 2-04 Rocket1 2.6 05:22:24 10° W 05:26:17 65° SSW 05:29:57 10° ESE
Abrixas 2.7 05:25:05 10° WNW 05:28:02 47° SW 05:30:59 10° SSE
SL-16 R/B 3.3 05:23:18 10° WSW 05:28:06 28° WNW 05:32:56 10° N
Elektron 1 4.2 05:25:44 10° SSW 05:28:36 71° ESE 05:32:40 10° NE
Cosmos 923 Rocket 4.0 05:26:58 10° SSW 05:32:11 76° WNW 05:37:24 10° NNE
